AZU2884 SBKP-SBRJ

Flight info

Callsign AZU2884
Flight time 0h 41m
Altitude 31000
Route NIBRU UZ171 KEVUN
Aircraft E195/M-SDE3GILORVW/S

Departure

Time 2026-04-28 01:57
Airport Viracopos International Airport (SBKP)

Arrival

Time 2026-04-28 02:38
Airport Santos Dumont Airport (SBRJ)
Time Latitude Longitude Altitude Speed Heading
2026-04-28 01:44 -23.00492 -47.14932 2188 ft 0 kts 36°
2026-04-28 01:47 -23.00493 -47.14932 2188 ft 2 kts 36°
2026-04-28 01:47 -23.00514 -47.14946 2153 ft 4 kts 18°
2026-04-28 01:47 -23.00540 -47.14951 2153 ft 4 kts 349°
2026-04-28 01:47 -23.00563 -47.14940 2156 ft 3 kts 312°
2026-04-28 01:48 -23.00565 -47.14938 2157 ft 0 kts 309°
2026-04-28 01:51 -23.00508 -47.15012 2155 ft 9 kts 308°
2026-04-28 01:51 -23.00466 -47.15071 2161 ft 9 kts 308°
2026-04-28 01:51 -23.00429 -47.15122 2158 ft 9 kts 308°
2026-04-28 01:52 -23.00378 -47.15163 2161 ft 10 kts
2026-04-28 01:52 -23.00314 -47.15115 2154 ft 13 kts 38°
2026-04-28 01:52 -23.00236 -47.15050 2156 ft 16 kts 38°
2026-04-28 01:52 -23.00169 -47.14993 2155 ft 11 kts 39°
2026-04-28 01:53 -23.00107 -47.14941 2157 ft 12 kts 38°
2026-04-28 01:53 -23.00043 -47.14889 2157 ft 8 kts 36°
2026-04-28 01:53 -23.00008 -47.14845 2153 ft 7 kts 64°
2026-04-28 01:53 -22.99968 -47.14801 2161 ft 9 kts 38°
2026-04-28 01:54 -22.99929 -47.14768 2157 ft 6 kts 38°
2026-04-28 01:54 -22.99926 -47.14766 2158 ft 0 kts 41°
2026-04-28 01:55 -22.99907 -47.14744 2154 ft 5 kts 50°
2026-04-28 01:55 -22.99871 -47.14661 2158 ft 5 kts 109°
2026-04-28 01:55 -22.99884 -47.14642 2155 ft 2 kts 129°
2026-04-28 01:56 -22.99911 -47.14605 2157 ft 19 kts 128°
2026-04-28 01:56 -23.00128 -47.14305 2156 ft 85 kts 128°
2026-04-28 01:56 -23.00632 -47.13604 2160 ft 148 kts 128°
2026-04-28 01:56 -23.01306 -47.12661 2709 ft 160 kts 129°
2026-04-28 01:57 -23.02028 -47.11691 3469 ft 170 kts 130°
2026-04-28 01:57 -23.02912 -47.10773 4035 ft 184 kts 146°
2026-04-28 01:57 -23.04041 -47.10005 4633 ft 199 kts 150°
2026-04-28 01:57 -23.05267 -47.09189 5246 ft 216 kts 147°
2026-04-28 01:58 -23.06575 -47.08227 5790 ft 242 kts 147°
2026-04-28 01:58 -23.08048 -47.07164 6390 ft 265 kts 148°
2026-04-28 01:58 -23.09632 -47.06017 7080 ft 283 kts 148°
2026-04-28 01:58 -23.11328 -47.04796 7795 ft 299 kts 148°
2026-04-28 01:59 -23.13081 -47.03532 8773 ft 304 kts 147°
2026-04-28 01:59 -23.14879 -47.02282 9824 ft 309 kts 150°
2026-04-28 01:59 -23.16740 -47.01079 10846 ft 313 kts 150°
2026-04-28 01:59 -23.18612 -46.99851 11856 ft 316 kts 150°
2026-04-28 02:00 -23.20503 -46.98611 12820 ft 320 kts 150°
2026-04-28 02:00 -23.22541 -46.97457 13383 ft 339 kts 158°
2026-04-28 02:00 -23.24717 -46.96371 14138 ft 350 kts 156°
2026-04-28 02:00 -23.26936 -46.95217 14976 ft 357 kts 156°
2026-04-28 02:01 -23.29195 -46.94044 15849 ft 363 kts 156°
2026-04-28 02:01 -23.31488 -46.92832 16713 ft 370 kts 154°
2026-04-28 02:01 -23.33552 -46.91121 17507 ft 381 kts 131°
2026-04-28 02:01 -23.35024 -46.88703 18315 ft 387 kts 119°
2026-04-28 02:02 -23.36335 -46.86123 18998 ft 393 kts 120°
2026-04-28 02:02 -23.37704 -46.83521 19636 ft 400 kts 120°
2026-04-28 02:02 -23.39042 -46.80887 20230 ft 407 kts 115°
2026-04-28 02:02 -23.39976 -46.77948 20761 ft 415 kts 102°
2026-04-28 02:03 -23.40595 -46.74861 21375 ft 420 kts 100°
2026-04-28 02:03 -23.41180 -46.71719 21969 ft 427 kts 99°
2026-04-28 02:03 -23.41767 -46.68484 22580 ft 433 kts 99°
2026-04-28 02:03 -23.42353 -46.65290 23125 ft 439 kts 99°
2026-04-28 02:04 -23.42953 -46.62018 23715 ft 444 kts 99°
2026-04-28 02:04 -23.43561 -46.58703 24189 ft 448 kts 99°
2026-04-28 02:04 -23.44169 -46.55371 24773 ft 448 kts 99°
2026-04-28 02:04 -23.44765 -46.52035 25288 ft 450 kts 99°
2026-04-28 02:05 -23.45364 -46.48678 25750 ft 454 kts 99°
2026-04-28 02:05 -23.45968 -46.45294 26206 ft 457 kts 99°
2026-04-28 02:05 -23.46577 -46.41892 26665 ft 460 kts 99°
2026-04-28 02:05 -23.47191 -46.38462 27128 ft 463 kts 99°
2026-04-28 02:06 -23.47807 -46.35014 27576 ft 466 kts 99°
2026-04-28 02:06 -23.48428 -46.31528 27964 ft 470 kts 99°
2026-04-28 02:06 -23.49047 -46.28020 28375 ft 473 kts 99°
2026-04-28 02:06 -23.49672 -46.24489 28777 ft 476 kts 99°
2026-04-28 02:07 -23.50296 -46.20935 29182 ft 478 kts 99°
2026-04-28 02:07 -23.50917 -46.17378 29726 ft 477 kts 99°
2026-04-28 02:07 -23.51547 -46.13848 30322 ft 473 kts 98°
2026-04-28 02:07 -23.52196 -46.10344 30780 ft 471 kts 99°
2026-04-28 02:08 -23.52846 -46.06849 31097 ft 474 kts 99°
2026-04-28 02:08 -23.53452 -46.03282 31105 ft 483 kts 97°
2026-04-28 02:08 -23.54404 -45.95900 31126 ft 500 kts 94°
2026-04-28 02:09 -23.55237 -45.88272 31160 ft 513 kts 94°
2026-04-28 02:09 -23.56083 -45.80494 31085 ft 518 kts 94°
2026-04-28 02:10 -23.56945 -45.72685 31073 ft 519 kts 94°
2026-04-28 02:10 -23.57797 -45.64879 31072 ft 520 kts 94°
2026-04-28 02:11 -23.58644 -45.57065 31077 ft 519 kts 94°
2026-04-28 02:11 -23.59480 -45.49280 31092 ft 517 kts 94°
2026-04-28 02:12 -23.60307 -45.41526 31067 ft 520 kts 94°
2026-04-28 02:12 -23.61154 -45.33699 31073 ft 518 kts 94°
2026-04-28 02:13 -23.61990 -45.25895 31076 ft 518 kts 94°
2026-04-28 02:13 -23.62819 -45.18090 31062 ft 518 kts 94°
2026-04-28 02:14 -23.63231 -45.14197 30942 ft 515 kts 94°
2026-04-28 02:14 -23.63639 -45.10364 30485 ft 503 kts 94°
2026-04-28 02:14 -23.64048 -45.06601 29647 ft 499 kts 94°
2026-04-28 02:14 -23.64458 -45.02869 28881 ft 492 kts 94°
2026-04-28 02:15 -23.64333 -44.95619 27271 ft 469 kts 67°
2026-04-28 02:15 -23.62909 -44.92514 26562 ft 451 kts 51°
2026-04-28 02:15 -23.61233 -44.89649 25903 ft 448 kts 55°
2026-04-28 02:16 -23.59830 -44.86632 25352 ft 442 kts 58°
2026-04-28 02:16 -23.58179 -44.83893 24769 ft 423 kts 40°
2026-04-28 02:16 -23.55973 -44.81896 24359 ft 404 kts 28°
2026-04-28 02:16 -23.53664 -44.80235 23963 ft 393 kts 26°
2026-04-28 02:17 -23.51364 -44.78673 23608 ft 386 kts 25°
2026-04-28 02:17 -23.49091 -44.77154 23245 ft 382 kts 25°
2026-04-28 02:17 -23.46865 -44.75553 22897 ft 386 kts 30°
2026-04-28 02:17 -23.44788 -44.73651 22486 ft 394 kts 39°
2026-04-28 02:18 -23.42973 -44.71385 22016 ft 400 kts 49°
2026-04-28 02:18 -23.41469 -44.68827 21501 ft 403 kts 58°
2026-04-28 02:18 -23.40388 -44.66003 20982 ft 405 kts 68°
2026-04-28 02:18 -23.39552 -44.63083 20423 ft 403 kts 70°
2026-04-28 02:19 -23.38771 -44.60173 19887 ft 398 kts 71°
2026-04-28 02:19 -23.38036 -44.57283 19364 ft 394 kts 72°
2026-04-28 02:19 -23.37336 -44.54417 18847 ft 390 kts 72°
2026-04-28 02:19 -23.36659 -44.51574 18325 ft 386 kts 73°
2026-04-28 02:20 -23.36003 -44.48761 17799 ft 380 kts 73°
2026-04-28 02:20 -23.35363 -44.45996 17308 ft 374 kts 73°
2026-04-28 02:20 -23.34738 -44.43266 16817 ft 369 kts 74°
2026-04-28 02:20 -23.33927 -44.40652 16335 ft 362 kts 63°
2026-04-28 02:21 -23.32833 -44.38205 15856 ft 358 kts 61°
2026-04-28 02:21 -23.31761 -44.35766 15371 ft 357 kts 62°
2026-04-28 02:21 -23.30699 -44.33337 14915 ft 355 kts 62°
2026-04-28 02:21 -23.29650 -44.30920 14440 ft 351 kts 63°
2026-04-28 02:22 -23.28614 -44.28531 13977 ft 348 kts 63°
2026-04-28 02:22 -23.27591 -44.26163 13494 ft 344 kts 63°
2026-04-28 02:22 -23.26585 -44.23832 13068 ft 338 kts 63°
2026-04-28 02:22 -23.25592 -44.21533 12610 ft 333 kts 63°
2026-04-28 02:23 -23.24613 -44.19263 12178 ft 329 kts 63°
2026-04-28 02:23 -23.23646 -44.17023 11744 ft 326 kts 63°
2026-04-28 02:23 -23.22690 -44.14806 11311 ft 322 kts 63°
2026-04-28 02:23 -23.21741 -44.12613 10889 ft 319 kts 63°
2026-04-28 02:24 -23.20803 -44.10437 10474 ft 317 kts 63°
2026-04-28 02:24 -23.19872 -44.08285 10129 ft 312 kts 63°
2026-04-28 02:24 -23.18939 -44.06186 9818 ft 305 kts 62°
2026-04-28 02:24 -23.17987 -44.04145 9530 ft 299 kts 62°
2026-04-28 02:25 -23.17063 -44.02141 9322 ft 295 kts 62°
2026-04-28 02:25 -23.16144 -44.00156 9165 ft 294 kts 62°
2026-04-28 02:25 -23.15238 -43.98157 9051 ft 296 kts 63°
2026-04-28 02:25 -23.14380 -43.96119 8914 ft 297 kts 64°
2026-04-28 02:26 -23.13515 -43.94093 8862 ft 295 kts 64°
2026-04-28 02:26 -23.12666 -43.92097 8803 ft 294 kts 64°
2026-04-28 02:26 -23.11805 -43.90083 8735 ft 294 kts 64°
2026-04-28 02:26 -23.10947 -43.88070 8661 ft 294 kts 64°
2026-04-28 02:27 -23.10088 -43.86063 8589 ft 289 kts 64°
2026-04-28 02:27 -23.09269 -43.84144 8489 ft 272 kts 64°
2026-04-28 02:27 -23.08472 -43.82284 8468 ft 274 kts 63°
2026-04-28 02:27 -23.07655 -43.80378 8430 ft 282 kts 64°
2026-04-28 02:28 -23.06817 -43.78424 8349 ft 288 kts 64°
2026-04-28 02:28 -23.06244 -43.77091 8288 ft 289 kts 64°
2026-04-28 02:28 -23.05396 -43.75111 8226 ft 290 kts 64°
2026-04-28 02:28 -23.04544 -43.73127 8176 ft 289 kts 64°
2026-04-28 02:29 -23.03691 -43.71138 8005 ft 294 kts 64°
2026-04-28 02:29 -23.02832 -43.69142 7828 ft 290 kts 64°
2026-04-28 02:29 -23.01971 -43.67176 7677 ft 288 kts 63°
2026-04-28 02:29 -23.01111 -43.65213 7427 ft 288 kts 63°
2026-04-28 02:30 -23.00251 -43.63252 7163 ft 286 kts 63°
2026-04-28 02:30 -22.99407 -43.61323 6964 ft 281 kts 64°
2026-04-28 02:30 -22.98565 -43.59413 6758 ft 280 kts 63°
2026-04-28 02:30 -22.97733 -43.57513 6608 ft 278 kts 64°
2026-04-28 02:31 -22.96902 -43.55621 6449 ft 277 kts 63°
2026-04-28 02:31 -22.96072 -43.53741 6270 ft 276 kts 63°
2026-04-28 02:31 -22.95240 -43.51860 6093 ft 277 kts 64°
2026-04-28 02:31 -22.94412 -43.49967 5841 ft 277 kts 64°
2026-04-28 02:32 -22.93615 -43.48071 5583 ft 275 kts 65°
2026-04-28 02:32 -22.92826 -43.46187 5276 ft 274 kts 65°
2026-04-28 02:32 -22.92039 -43.44342 4993 ft 272 kts 65°
2026-04-28 02:32 -22.91237 -43.42457 4649 ft 270 kts 66°
2026-04-28 02:33 -22.90465 -43.40621 4365 ft 265 kts 66°
2026-04-28 02:33 -22.89712 -43.38847 4069 ft 260 kts 66°
2026-04-28 02:33 -22.88963 -43.37114 4021 ft 246 kts 65°
2026-04-28 02:33 -22.88250 -43.35475 3979 ft 235 kts 66°
2026-04-28 02:34 -22.87706 -43.33838 3947 ft 227 kts 77°
2026-04-28 02:34 -22.87354 -43.32188 4037 ft 222 kts 76°
2026-04-28 02:34 -22.86970 -43.30568 4076 ft 219 kts 75°
2026-04-28 02:34 -22.86597 -43.29010 4028 ft 208 kts 79°
2026-04-28 02:35 -22.86554 -43.27492 3826 ft 196 kts 96°
2026-04-28 02:35 -22.86648 -43.26072 3727 ft 180 kts 92°
2026-04-28 02:35 -22.86685 -43.24772 3666 ft 166 kts 92°
2026-04-28 02:35 -22.86718 -43.23553 3498 ft 158 kts 92°
2026-04-28 02:36 -22.86739 -43.22387 3304 ft 151 kts 92°
2026-04-28 02:36 -22.86752 -43.21267 3007 ft 146 kts 92°
2026-04-28 02:36 -22.86762 -43.20209 2782 ft 134 kts 92°
2026-04-28 02:36 -22.86767 -43.19231 2494 ft 130 kts 92°
2026-04-28 02:37 -22.86760 -43.18218 2017 ft 140 kts 91°
2026-04-28 02:37 -22.86829 -43.17221 1695 ft 135 kts 106°
2026-04-28 02:37 -22.87382 -43.16369 1081 ft 146 kts 150°
2026-04-28 02:37 -22.88319 -43.16304 909 ft 124 kts 189°
2026-04-28 02:38 -22.89186 -43.16384 494 ft 131 kts 180°
2026-04-28 02:38 -22.90101 -43.16345 146 ft 129 kts 176°
2026-04-28 02:38 -22.90939 -43.16289 26 ft 108 kts 178°
2026-04-28 02:38 -22.91443 -43.16258 22 ft 30 kts 178°
2026-04-28 02:39 -22.91522 -43.16294 22 ft 10 kts 252°
2026-04-28 02:39 -22.91522 -43.16366 26 ft 5 kts 287°
2026-04-28 02:39 -22.91511 -43.16384 26 ft 2 kts 303°
2026-04-28 02:39 -22.91509 -43.16388 29 ft 3 kts 303°
2026-04-28 02:40 -22.91485 -43.16419 27 ft 6 kts 316°
2026-04-28 02:40 -22.91453 -43.16452 28 ft 7 kts 317°
2026-04-28 02:40 -22.91413 -43.16491 28 ft 8 kts 323°
2026-04-28 02:40 -22.91368 -43.16501 28 ft 0 kts 356°
2026-04-28 02:41 -22.91365 -43.16501 28 ft 0 kts 356°
2026-04-28 02:41 -22.91360 -43.16501 28 ft 2 kts 356°
2026-04-28 02:41 -22.91339 -43.16503 28 ft 4 kts 356°
2026-04-28 02:41 -22.91315 -43.16505 28 ft 3 kts 356°
2026-04-28 02:42 -22.91296 -43.16506 28 ft 4 kts 356°
2026-04-28 02:42 -22.91263 -43.16508 28 ft 6 kts 356°
2026-04-28 02:42 -22.91224 -43.16511 28 ft 5 kts 355°
2026-04-28 02:42 -22.91196 -43.16514 28 ft 3 kts 355°
2026-04-28 02:43 -22.91178 -43.16515 28 ft 2 kts 355°
2026-04-28 02:43 -22.91172 -43.16519 28 ft 1 kts 327°
2026-04-28 02:43 -22.91170 -43.16526 28 ft 1 kts 289°
2026-04-28 02:43 -22.91169 -43.16544 28 ft 5 kts 273°
2026-04-28 02:44 -22.91170 -43.16572 28 ft 2 kts 266°
2026-04-28 02:44 -22.91171 -43.16578 28 ft 1 kts 266°
2026-04-28 02:44 -22.91171 -43.16582 28 ft 0 kts 266°